Terminal Aerodrome Forecast
Issued by NWS Pueblo, CO

Home | Current Version | Previous Version | Text Only | Print | Product List | Glossary On
Versions: 1 2 3 4 5 6 7 8 9 10 11 12 13 14 15 16 17 18 19 20 21 22 23 24 25 26 27 28 29 30 31 32 33 34
000
FTUS45 KPUB 010524
TAFALS
TAF
KALS 010524Z 0106/0206 VRB06KT P6SM FEW090 SCT120
     FM012000 26012KT P6SM VCSH FEW060 SCT080 BKN100=

USA.gov is the U.S. government's official web portal to all federal, state and local government web resources and services.